Content
SEND FEEDBACK

Daily
Averages
Monthly
Summary
Solomon Islands

AUKI, SOLOMON ISLANDS


Home > Oceania > Solomon Islands
Elevation: 11 meters     Latitude: 08 46S     Longitude: 160 43E

WEATHER
 
SELECT A DAY
Number of Records: 212,049;   Date Range: 1/1/95 - 10/20/14
 
SHARE

PRINT THIS DATA

[ ← Previous Day ]
WEATHER ALMANAC - 13 FEBRUARY, 2013
[ Next Day → ]
[ °F ]   °C
Weather ElementAverageHighLow
Temperature23.1 °C28 °C (2:21 pm) (10:20 pm)
Dewpoint21.3 °C25 °C (3:04 pm) (7:00 pm)
Humidity89.8 %100 % (3:04 pm)74 % (2:21 pm)
Barometer1012.2 hPa1013.9 hPa (9:54 am)1010.8 hPa (3:54 pm)
Wind Speed23.7 km/h33.3 km/h (4:54 pm)
Wind Gust42.6 km/h (10:45 pm)
Weather ElementAverage
Visibility14 km
Wind DirectionENE (80.3 °)

Weather ElementTotal
Precipitation11.68 mm
Heating Degree Days13.2 (Base 18.3)
Averaged from 37 records on 13 February, 2013
WEATHER CONDITIONS BREAKOUT
WIND DIRECTION BREAKOUT
WEATHER BY HOUR - 13 FEBRUARY, 2013
[ °F ]   °C
Local TimeTemperatureDewpointHumidityBarometerVisibilityWind DirectionWind SpeedGust SpeedPrecipitationEventsConditions
1:54 AM25 °C22.8 °C88 %1012.2 hPa16.1 kmENE (70°)27.8 km/h35.2 km/hScattered Clouds
2:54 AM25 °C22.8 °C88 %1011.5 hPa16.1 kmENE (70°)27.8 km/h40.7 km/hMostly Cloudy
3:54 AM23.9 °C23.3 °C96 %1011.2 hPa16.1 kmENE (70°)27.8 km/h37 km/h0.51 mmOvercast
4:54 AM24.4 °C22.8 °C91 %1011.5 hPa16.1 kmEast (80°)27.8 km/h40.7 km/hMostly Cloudy
5:54 AM24.4 °C23.3 °C94 %1011.9 hPa16.1 kmEast (80°)25.9 km/h35.2 km/hScattered Clouds
6:54 AM23.9 °C23.3 °C96 %1012.2 hPa16.1 kmEast (80°)24.1 km/h37 km/h0.25 mmRainLight Rain
7:54 AM25 °C22.8 °C88 %1012.9 hPa16.1 kmEast (80°)24.1 km/h38.9 km/h0 mmPartly Cloudy
8:09 AM25 °C23 °C89 %1013.5 hPa16.1 kmEast (90°)22.2 km/hPartly Cloudy
8:54 AM26.1 °C22.2 °C79 %1013.2 hPa16.1 kmEast (90°)24.1 km/h37 km/hPartly Cloudy
9:54 AM25.6 °C23.3 °C87 %1013.9 hPa9.7 kmEast (90°)29.6 km/h35.2 km/hMostly Cloudy
10:54 AM26.1 °C24.4 °C90 %1013.2 hPa16.1 kmEast (80°)24.1 km/h1.27 mmPartly Cloudy
11:43 AM25 °C24 °C94 %1013.5 hPa2.9 kmESE (110°)18.5 km/h31.5 km/h0.25 mmRainHeavy Rain
11:52 AM25 °C24 °C94 %1013.5 hPa8 kmEast (100°)20.4 km/h27.8 km/h1.78 mmRainLight Rain
11:54 AM25 °C24.4 °C96 %1012.9 hPa8 kmESE (110°)16.7 km/h1.78 mmRainLight Rain
12:54 PM26.7 °C24.4 °C87 %1011.9 hPa16.1 kmEast (80°)24.1 km/h37 km/h0 mmScattered Clouds
1:54 PM26.7 °C23.3 °C81 %1011.2 hPa16.1 kmENE (70°)25.9 km/hMostly Cloudy
2:06 PM27 °C23 °C79 %1011.9 hPa16.1 kmEast (80°)27.8 km/hMostly Cloudy
2:21 PM28 °C23 °C74 %1011.9 hPa16.1 kmENE (70°)27.8 km/h40.7 km/hMostly Cloudy
2:28 PM28 °C23 °C74 %1011.9 hPa16.1 kmENE (70°)29.6 km/h40.7 km/hScattered Clouds
2:35 PM27 °C23 °C79 %1011.5 hPa16.1 kmENE (70°)20.4 km/h38.9 km/hMostly Cloudy
2:46 PM28 °C23 °C74 %1011.5 hPa16.1 kmENE (70°)29.6 km/h40.7 km/hMostly Cloudy
2:54 PM25 °C23.9 °C94 %1011.2 hPa6.4 kmEast (100°)20.4 km/h38.9 km/h0 mmRainRain
3:04 PM25 °C25 °C100 %1011.5 hPa16.1 kmEast (90°)18.5 km/h0 mmRainLight Rain
3:54 PM26.1 °C24.4 °C90 %1010.8 hPa14.5 kmEast (80°)18.5 km/h0 mmRainLight Rain
4:54 PM26.1 °C22.8 °C82 %1010.8 hPa16.1 kmENE (70°)33.3 km/h40.7 km/h0 mmPartly Cloudy
5:54 PM25.6 °C23.9 °C90 %1011.2 hPa9.7 kmENE (70°)25.9 km/h37 km/h0 mmRainLight Rain
6:11 PM24 °C24 °C100 %1011.9 hPa12.9 kmEast (80°)18.5 km/h0 mmOvercast
6:28 PM24 °C24 °C100 %1011.9 hPa16.1 kmEast (90°)13 km/h0.51 mmMostly Cloudy
6:54 PM24.4 °C24.4 °C100 %1011.2 hPa16.1 kmENE (70°)20.4 km/h0.76 mmMostly Cloudy
7:54 PM23.3 °C23.3 °C100 %1011.9 hPa8 kmENE (70°)24.1 km/h1.02 mmRainLight Rain
8:54 PM25.6 °C23.3 °C87 %1012.5 hPa16.1 kmENE (70°)22.2 km/h0.51 mmPartly Cloudy
9:54 PM25.6 °C23.9 °C90 %1012.9 hPa16.1 kmENE (70°)27.8 km/h0 mmMostly Cloudy
10:20 PM-17.8 °C-17.8 °C1013.5 hPa16.1 kmEast (80°)18.5 km/hOvercast
10:30 PM-17.8 °C-17.8 °C1013.5 hPa16.1 kmEast (80°)24.1 km/hOvercast
10:45 PM24 °C24 °C100 %1013.5 hPa4.8 kmEast (90°)18.5 km/h42.6 km/h1.27 mmRainLight Rain
10:54 PM24.3 °C23.9 °C98 %1012.9 hPa14.5 kmENE (60°)24.1 km/h1.27 mmRainLight Rain
11:54 PM24.4 °C23.3 °C94 %1012.9 hPa16.1 kmEast (90°)18.5 km/h35.2 km/h0.51 mmRainLight Rain
Hourly data recorded from AGAT, located 0 kilometers away from Auki, Solomon Islands







STORIES FROM OUR PARTNERS